Overview Statistics Trail Chart Weather Telemetry Raw packets
 

This is the latest recevied weather packets stored in our database for station/object WX0ABE-13. If no packets are shown the sender has not sent any weather packets the latest 10 day(s).

<< 30 31 32 33 34 35 36 >>
Time Temp. Humidity Pressure Rain* Wind** Luminosity Snow
1788147593 21.11° C 57% 1017 hPa 0 mm - 0 W/m² -
1788147288 21.11° C 57% 1017.2 hPa 0 mm - 0 W/m² -
1788146984 21.67° C 55% 1017.1 hPa 0 mm - 0 W/m² -
1788146684 21.67° C 54% 1017.1 hPa 0 mm - 0 W/m² -
1788146379 22.22° C 53% 1017.2 hPa 0 mm - 0 W/m² -
1788146078 22.22° C 51% 1017.1 hPa 0 mm - 0 W/m² -
1788145778 22.22° C 51% 1017.1 hPa 0 mm - 0 W/m² -
1788145477 22.22° C 51% 1016.8 hPa 0 mm - 0 W/m² -
1788145176 22.22° C 51% 1016.7 hPa 0 mm - 0 W/m² -
1788144875 22.78° C 50% 1016.6 hPa 0 mm - 0 W/m² -
1788144571 22.78° C 49% 1016.5 hPa 0 mm - 0 W/m² -
1788144270 23.33° C 48% 1016.5 hPa 0 mm - 0 W/m² -
1788143965 23.89° C 47% 1016.3 hPa 0 mm - 0 W/m² -
1788143663 23.89° C 47% 1016.5 hPa 0 mm - 0 W/m² -
1788143359 23.89° C 46% 1016.4 hPa 0 mm - 0 W/m² -
1788143058 24.44° C 45% 1016.3 hPa 0 mm - 0 W/m² -
1788142752 23.89° C 45% 1016.3 hPa 0 mm - 0 W/m² -
1788142452 24.44° C 45% 1016.2 hPa 0 mm - 0 W/m² -
1788142148 24.44° C 44% 1016.3 hPa 0 mm - 0 W/m² -
1788141848 25° C 43% 1016.4 hPa 0 mm - 0 W/m² -
1788141542 25° C 43% 1016.3 hPa 0 mm - 0 W/m² -
1788141239 24.44° C 43% 1016.2 hPa 0 mm - 0 W/m² -
1788140938 24.44° C 47% 1016.4 hPa 0 mm - 0 W/m² -
1788140633 24.44° C 47% 1016.5 hPa 0 mm - 0 W/m² -
1788140329 25° C 45% 1016.3 hPa 0 mm - 0 W/m² -

* Rain latest hour (hover to see other rain measurements)
** Current wind speed in m/s (hover to see current wind gust speed)